CW1075 Weather Reports


time (UTC)temp
C
wind
direction
speed
KPH
gust
KPH
rain 1hr
cm
rain 24hr
cm
rain mn
cm
humidity
%
barometer
mb
20260505153108 18 360 0.0 0.0 0.00 0.00 0.00 67 1008.7
20260505151555 17 360 0.0 0.0 0.00 0.00 0.00 68 1008.6
20260505150108 17 360 0.0 0.0 0.00 0.00 0.00 71 1008.4
20260505124525 17 360 0.0 0.0 0.00 0.00 0.00 72 1006.6
20260505123015 17 360 0.0 0.0 0.00 0.00 0.00 72 1006.4
20260505121524 17 360 0.0 0.0 0.00 0.00 0.00 72 1006.2
20260505120009 17 360 0.0 0.0 0.00 0.00 0.00 72 1006.1
20260505114507 17 360 0.0 0.0 0.00 0.00 0.00 72 1005.9
20260505113005 17 360 0.0 0.0 0.00 0.00 0.00 71 1005.9
20260505111601 18 360 0.0 0.0 0.00 0.00 0.00 70 1005.8
20260505101550 18 360 0.0 0.0 0.00 0.00 0.00 68 1005.2
20260505100118 18 360 0.0 0.0 0.00 0.00 0.00 68 1005.1
20260505094546 18 360 0.0 0.0 0.00 0.00 0.00 67 1005.0
20260505093046 18 360 0.0 0.0 0.00 0.00 0.00 67 1005.0
20260505091606 18 360 0.0 0.0 0.00 0.00 0.00 66 1004.9
20260505090055 19 360 0.0 0.0 0.00 0.00 0.00 64 1004.9
20260505084545 19 360 0.0 0.0 0.00 0.00 0.00 64 1004.9
20260505083049 19 360 0.0 0.0 0.00 0.00 0.00 64 1004.6
20260505081545 19 360 0.0 0.0 0.00 0.00 0.00 63 1004.5
20260505080046 20 360 0.0 0.0 0.00 0.00 0.00 63 1004.4
20260505074541 20 217 0.0 0.0 0.00 0.00 0.00 63 1004.3
20260505073047 20 360 0.0 0.0 0.00 0.00 0.00 63 1004.2
20260505071542 20 360 0.0 0.0 0.00 0.00 0.00 61 1003.9
20260505070007 20 360 0.0 0.0 0.00 0.00 0.00 60 1003.6
20260505064505 20 360 0.0 0.0 0.00 0.00 0.00 60 1003.5
20260505063005 20 360 0.0 0.0 0.00 0.00 0.00 60 1003.3
20260505061603 21 360 0.0 0.0 0.00 0.00 0.00 60 1003.3
20260505060002 21 360 0.0 0.0 0.00 0.00 0.00 59 1003.0
20260505054500 20 360 0.0 0.0 0.00 0.00 0.00 60 1003.1
20260505053058 20 360 0.0 0.0 0.00 0.00 0.00 60 1003.1
20260505051558 20 360 0.0 0.0 0.00 0.00 0.00 59 1003.1
20260505041605 21 360 0.0 0.0 0.00 0.00 0.00 51 1002.8
20260505040054 22 360 0.0 0.0 0.00 0.00 0.00 48 1002.6
20260505034553 23 360 0.0 0.0 0.00 0.00 0.00 42 1002.3
20260505033051 24 360 0.0 0.0 0.00 0.00 0.00 38 1002.2
20260505031553 26 360 0.0 0.0 0.00 0.00 0.00 33 1002.1
20260505030100 26 360 0.0 0.0 0.00 0.00 0.00 29 1001.9
20260505024550 28 360 0.0 0.0 0.00 0.00 0.00 29 1001.8
20260505023047 29 360 0.0 0.0 0.00 0.00 0.00 26 1001.8
20260505021553 30 360 0.0 0.0 0.00 0.00 0.00 25 1001.8
20260505020053 30 360 0.0 0.0 0.00 0.00 0.00 23 1001.9
20260505014544 30 264 0.0 0.0 0.00 0.00 0.00 22 1001.9
20260505013042 30 360 0.0 0.0 0.00 0.00 0.00 21 1002.0
20260505011540 30 360 0.0 0.0 0.00 0.00 0.00 23 1002.1
20260505004538 32 360 0.0 0.0 0.00 0.00 0.00 19 1002.2
20260505003045 32 360 0.0 0.0 0.00 0.00 0.00 20 1002.2
20260505001539 31 360 0.0 0.0 0.00 0.00 0.00 20 1002.2
20260505000042 31 310 0.0 0.0 0.00 0.00 0.00 21 1002.4
20260504234534 32 360 0.0 0.0 0.00 0.00 0.00 20 1002.4
20260504233027 32 360 0.0 0.0 0.00 0.00 0.00 21 1002.5
20260504231526 31 360 0.0 0.0 0.00 0.00 0.00 21 1002.7
20260504230023 31 360 0.0 0.0 0.00 0.00 0.00 22 1002.8
20260504224525 31 360 0.0 0.0 0.00 0.00 0.00 22 1003.0
20260504223017 31 360 0.0 0.0 0.00 0.00 0.00 21 1003.3
20260504221513 31 360 0.0 0.0 0.00 0.00 0.00 23 1003.4
20260504220009 30 360 0.0 0.0 0.00 0.00 0.00 24 1003.7
20260504214508 30 360 0.0 0.0 0.00 0.00 0.00 25 1003.9
20260504213035 30 360 0.0 0.0 0.00 0.00 0.00 25 1004.1
20260504211534 30 360 0.0 0.0 0.00 0.00 0.00 25 1004.3
20260504210027 29 360 0.0 0.0 0.00 0.00 0.00 24 1004.5
20260504204523 28 360 0.0 0.0 0.00 0.00 0.00 26 1004.7
20260504203022 28 360 0.0 0.0 0.00 0.00 0.00 26 1004.9
20260504201519 28 360 0.0 0.0 0.00 0.00 0.00 28 1005.1
20260504200057 27 360 0.0 0.0 0.00 0.00 0.00 28 1005.2
20260504194544 27 360 0.0 0.0 0.00 0.00 0.00 29 1005.3
20260504193042 26 360 0.0 0.0 0.00 0.00 0.00 29 1005.5
20260504191537 26 360 0.0 0.0 0.00 0.00 0.00 31 1005.6
20260504190030 25 360 0.0 0.0 0.00 0.00 0.00 36 1005.7
20260504184534 24 267 0.0 0.0 0.00 0.00 0.00 44 1005.8
20260504183026 23 360 0.0 0.0 0.00 0.00 0.00 46 1006.0
20260504181515 22 360 0.0 0.0 0.00 0.00 0.00 49 1006.2
20260504180009 21 360 0.0 0.0 0.00 0.00 0.00 52 1006.3
20260504174506 21 360 0.0 0.0 0.00 0.00 0.00 54 1006.4
20260504173003 20 360 0.0 0.0 0.00 0.00 0.00 57 1006.4
20260504171529 19 360 0.0 0.0 0.00 0.00 0.00 58 1006.4